Wind_Speed
27 27 28 29 30 32 33 35 37 38 39 40 41 42 43 45 46 48 50 51 53 56 59 61 65 70 74 67 58 52 48 45 43 41 39 37 35 32 29 28 27 26 24 20 16 13 12 9 7 9 12 15 19 23 26 24 24 25 26 28 29 30 30 28 23 18 16 15 13 11 13 13 10 9 8 6 5 5 5 4 4 7 9 12 15
26 27 28 30 31 32 34 35 37 38 39 40 41 42 43 45 46 48 50 51 53 55 58 61 64 69 71 64 55 51 48 44 43 42 40 38 35 32 30 30 29 26 24 21 17 13 10 7 8 11 12 14 17 21 23 18 17 23 26 28 30 31 30 26 19 15 15 14 12 12 12 10 9 8 8 7 7 6 4 3 4 7 10 13 16
27 28 29 30 31 33 34 36 37 38 39 40 41 42 43 44 45 47 49 51 52 54 57 59 62 67 69 62 53 50 47 43 42 42 40 38 35 30 30 31 30 27 24 22 18 13 12 7 8 10 8 12 17 19 19 14 13 19 25 29 32 32 28 22 17 15 14 12 12 12 11 10 9 9 8 7 6 5 2 2 4 7 10 13 17
27 28 29 30 31 33 34 36 37 38 39 40 41 42 43 44 45 47 49 50 51 53 55 58 61 65 68 62 52 48 46 43 40 39 38 37 34 30 30 31 30 27 26 25 20 16 14 9 7 7 6 11 14 13 13 13 12 20 26 27 28 27 23 19 17 16 13 12 12 11 11 11 10 9 8 7 5 3 1 2 4 7 11 14 17
28 29 30 30 32 33 34 36 37 38 39 40 41 42 43 43 45 47 48 49 50 52 54 56 59 62 65 63 54 46 44 42 38 37 36 34 32 31 30 29 27 25 25 26 23 19 15 11 8 7 8 8 6 6 9 10 14 24 27 23 23 22 19 17 16 15 12 11 12 12 12 12 11 10 8 6 4 1 1 2 5 8 12 15 18
28 29 30 31 32 33 34 35 36 38 39 40 41 42 43 43 45 46 48 49 50 51 52 54 57 59 63 63 57 47 43 41 38 35 34 34 32 30 29 28 26 22 21 22 23 20 17 13 9 9 9 8 6 6 9 11 18 26 24 20 20 19 18 17 16 14 12 11 12 13 13 12 11 9 6 4 3 2 1 4 7 10 13 16 19
28 29 30 31 32 33 34 35 36 38 39 40 41 42 43 43 44 46 47 48 49 50 51 52 54 57 60 62 59 50 41 39 38 36 35 35 35 32 30 29 27 23 18 17 18 17 16 14 11 9 9 11 10 9 10 13 19 24 22 20 18 16 15 15 14 13 11 11 12 13 13 12 11 8 6 5 4 2 1 4 7 10 14 17 19
28 30 30 31 32 33 33 34 36 37 39 40 41 42 43 43 44 45 46 48 48 49 50 51 53 54 56 59 61 55 45 38 35 35 35 36 35 33 31 29 29 27 21 15 14 14 14 14 12 11 11 13 13 12 11 13 17 20 21 19 17 14 14 13 12 12 12 11 12 13 13 12 10 8 7 6 3 2 1 4 7 11 14 16 19
28 30 31 31 32 33 33 34 35 37 38 40 41 42 42 43 44 45 46 47 48 48 49 50 51 53 54 56 58 58 53 44 36 33 33 35 34 32 32 30 29 28 25 19 16 16 15 14 12 14 15 15 15 14 14 15 17 19 20 18 16 15 14 13 12 12 13 13 13 14 13 11 9 8 6 4 3 1 1 5 8 10 13 16 20
28 30 31 32 32 32 33 34 35 36 38 39 40 41 42 43 44 45 45 46 46 47 48 49 50 51 52 53 55 56 57 54 45 37 32 32 33 32 32 32 30 28 26 22 21 20 18 16 13 14 17 15 13 14 15 17 20 19 17 16 15 14 13 12 11 12 14 15 14 14 12 10 8 8 6 4 3 1 2 6 8 11 14 17 21
28 29 31 32 32 33 33 33 34 35 37 38 40 41 42 43 45 45 45 45 45 46 47 48 49 50 51 51 52 53 55 56 54 47 37 30 30 31 31 32 30 28 24 21 21 22 20 18 14 11 15 14 12 12 13 16 18 17 15 14 13 12 12 11 10 12 14 15 14 14 12 10 9 8 6 5 3 1 3 6 8 11 14 17 22
28 30 31 32 32 33 33 33 34 35 36 38 39 41 42 43 44 45 44 44 45 45 46 46 47 49 50 50 51 52 52 54 55 54 48 37 29 26 28 30 30 27 23 18 14 14 15 16 14 10 12 12 9 10 13 14 14 13 12 11 11 11 11 10 10 12 14 14 14 13 12 11 10 8 6 5 3 1 4 6 8 11 13 17 21
29 30 31 32 32 33 33 33 34 34 35 37 38 40 41 42 42 43 43 44 44 45 45 45 46 47 48 49 50 50 51 52 53 54 54 49 38 28 24 26 28 27 24 19 11 7 6 8 10 8 9 11 9 10 12 13 13 11 10 10 10 9 8 9 11 13 15 15 15 13 12 11 10 8 7 5 3 2 4 6 8 11 13 17 20
29 30 31 32 32 32 33 33 33 34 35 36 37 39 40 41 41 42 42 42 43 44 44 44 44 45 47 48 48 49 49 50 51 52 53 53 49 39 27 22 23 26 25 21 15 9 5 3 5 6 8 11 12 14 15 15 15 13 11 10 9 7 8 9 12 14 16 16 15 14 12 11 10 8 7 5 3 2 4 5 8 11 13 17 20
30 31 32 32 32 32 33 33 33 33 34 35 36 38 39 40 40 40 41 41 41 42 42 43 43 44 45 46 47 48 48 48 49 50 51 51 52 49 38 25 19 20 23 22 17 13 9 5 3 6 8 11 14 16 17 18 17 15 13 11 8 8 10 11 13 16 17 17 16 14 12 11 10 8 6 5 3 2 3 5 8 11 13 17 19
31 32 33 33 33 32 32 33 33 33 34 34 35 37 38 39 39 40 40 40 40 40 40 40 41 42 44 45 45 46 47 48 48 48 49 50 50 51 48 36 23 16 17 20 18 14 10 7 4 2 7 12 16 17 17 17 16 13 14 13 10 9 12 13 14 17 19 18 17 14 13 12 10 8 6 4 3 1 3 4 7 10 13 16 18
31 32 33 33 33 33 32 32 33 33 33 34 35 36 37 38 39 39 40 40 40 39 39 39 39 40 41 43 44 44 45 46 46 46 47 48 48 49 50 46 35 22 15 15 17 16 11 7 3 1 5 10 15 17 18 17 15 13 15 16 13 11 13 14 15 18 19 19 17 15 13 12 10 8 6 4 2 1 2 4 6 9 12 16 18
32 32 33 33 33 33 32 32 32 33 33 34 34 35 36 36 37 38 39 40 41 40 40 39 38 37 38 40 42 43 44 44 45 45 45 45 46 47 47 48 44 35 22 14 13 14 13 9 3 1 5 8 13 17 18 19 17 15 15 17 15 14 14 14 15 18 20 19 17 15 14 13 12 9 6 4 2 0 2 3 6 10 13 15 17
32 32 33 33 33 33 32 32 32 32 33 33 34 34 35 36 36 38 39 40 41 42 41 40 39 38 37 37 39 40 42 43 43 44 44 43 44 45 45 46 46 43 34 22 14 11 11 10 6 1 4 7 11 15 18 20 20 17 17 17 17 16 17 17 17 19 20 19 17 16 15 14 12 9 7 5 3 1 1 3 6 9 12 14 16
32 32 33 33 33 33 32 32 32 32 32 33 34 34 35 36 36 37 38 40 41 42 42 41 39 39 38 37 37 38 39 40 41 42 42 42 42 43 43 44 44 44 40 33 22 13 9 9 8 4 3 6 9 13 16 19 20 19 18 18 18 18 18 18 19 20 20 19 17 16 16 15 12 10 8 6 4 2 1 3 5 8 10 13 15
32 32 32 32 33 33 32 32 31 31 32 33 34 34 35 36 36 37 38 39 40 41 41 40 39 38 38 37 37 37 37 38 39 40 40 41 41 41 41 42 43 43 41 39 32 22 13 9 9 7 5 5 8 11 14 16 18 19 19 19 20 21 19 19 20 21 20 19 17 17 16 15 13 11 10 7 5 3 2 2 4 7 9 12 13
32 32 32 32 32 32 32 32 31 31 32 33 34 35 35 36 37 37 38 39 40 40 40 40 38 38 38 38 37 37 37 37 38 38 39 39 39 39 39 40 41 42 42 40 37 30 20 12 10 10 9 7 7 9 11 13 15 16 17 20 23 24 22 21 22 22 21 20 19 18 17 16 14 13 11 8 6 5 3 2 2 5 8 10 12
32 32 32 32 32 32 32 32 31 31 32 33 34 35 35 36 36 37 38 38 39 39 39 38 37 36 36 37 36 36 36 37 37 38 38 37 37 37 37 38 38 40 41 41 39 35 29 19 12 10 11 11 9 9 9 11 12 13 15 18 22 24 23 21 22 22 22 21 20 19 17 16 15 14 12 10 8 6 4 3 2 4 6 8 11
33 32 32 32 32 32 32 32 31 31 32 33 34 34 35 36 36 37 37 37 38 38 37 36 35 35 35 35 35 34 35 35 36 37 37 36 36 36 36 36 37 38 39 40 40 38 34 27 18 12 12 12 12 11 11 11 12 13 15 17 19 22 22 21 21 22 22 21 20 18 17 16 16 15 13 11 9 7 6 4 3 3 5 7 10
33 33 33 33 33 33 32 32 32 32 32 33 34 34 35 36 36 36 36 37 37 36 36 35 34 33 34 34 33 32 33 34 35 35 35 35 35 35 35 35 36 37 37 39 40 40 37 33 26 17 13 13 13 14 14 14 14 15 16 18 19 21 21 21 22 23 22 21 21 19 18 17 17 16 15 13 11 9 7 5 4 2 4 6 8
33 33 33 33 33 33 33 32 32 32 33 33 34 34 35 35 36 36 36 36 36 35 35 34 33 32 32 32 32 31 31 32 33 34 34 34 34 34 34 35 35 35 36 37 38 39 39 37 32 25 17 13 15 15 16 17 17 17 18 19 21 22 22 22 22 23 23 23 22 21 20 19 18 18 17 15 12 10 8 6 5 3 2 4 6
33 33 33 33 33 33 33 33 33 33 33 33 34 34 35 35 35 36 36 36 35 35 34 33 32 31 31 31 31 30 30 30 31 31 32 33 33 34 34 35 35 35 35 35 36 37 38 38 36 31 24 16 14 16 18 19 20 20 20 21 23 24 23 23 24 24 25 24 23 22 22 22 20 19 19 17 14 12 10 8 6 4 2 3 4
34 34 34 34 33 33 33 33 33 33 33 33 34 34 35 35 35 36 35 35 34 34 32 31 30 30 30 30 30 29 27 27 28 29 31 32 33 34 34 35 35 35 35 35 36 36 37 38 38 35 31 23 15 15 18 20 22 23 23 24 25 26 25 24 25 26 26 26 25 24 24 23 22 21 20 18 16 14 12 10 8 6 3 3 3
34 34 34 34 34 33 33 33 33 33 33 34 34 34 35 35 36 36 35 35 34 33 32 31 30 29 29 29 29 27 27 27 27 29 31 31 31 32 33 34 34 35 35 35 36 36 36 37 38 37 35 30 22 15 16 20 23 25 26 26 27 27 27 26 26 27 27 27 27 26 26 25 23 22 22 20 17 15 14 12 10 8 5 3 3
35 34 34 34 34 34 34 34 34 34 34 34 34 35 35 35 36 36 35 35 34 33 32 31 30 29 28 27 28 27 27 28 28 29 30 30 30 30 31 32 33 34 34 35 35 36 36 37 37 38 37 34 29 21 15 17 22 26 27 29 29 30 29 28 28 28 29 29 29 28 27 26 25 24 23 22 19 17 15 14 11 9 7 5 4
35 35 35 35 35 34 34 34 34 34 34 34 35 35 35 36 37 36 35 34 34 33 33 32 31 29 28 27 27 27 27 28 28 29 30 30 30 30 30 31 32 33 34 34 35 36 37 37 37 37 38 37 33 28 21 16 19 24 28 30 31 32 32 31 30 29 30 30 30 29 29 28 27 25 24 23 21 19 17 15 13 11 9 8 6
36 36 36 36 35 34 34 34 34 34 34 35 35 35 36 37 37 36 35 34 33 33 33 32 31 30 29 28 27 27 27 27 28 29 30 30 30 30 30 30 31 33 34 35 36 36 36 37 37 37 38 38 37 33 27 20 17 21 26 29 31 33 34 33 33 32 32 32 32 31 31 30 29 27 25 24 23 21 19 18 15 13 11 10 8
37 36 36 36 35 34 34 34 34 34 34 35 35 36 36 36 37 36 34 33 33 33 33 32 31 30 29 28 27 27 27 27 28 29 30 30 31 30 30 30 31 33 35 36 36 36 36 36 37 37 38 38 38 36 32 25 18 18 23 28 31 33 34 35 35 35 34 34 33 33 32 32 31 29 27 26 25 23 21 20 18 15 13 11 9
36 35 34 34 34 34 35 34 34 34 35 35 36 36 36 36 36 35 33 32 32 32 32 31 30 30 29 28 27 26 26 27 28 29 30 30 30 30 30 30 31 33 34 35 35 36 36 37 37 37 38 38 39 38 35 30 23 18 20 26 30 32 33 35 37 37 37 37 36 34 34 34 33 32 29 28 27 25 24 23 21 18 15 13 11
32 32 32 33 33 34 34 34 34 34 34 35 36 36 36 36 35 34 32 32 32 32 31 30 30 30 29 28 27 26 26 27 29 29 30 30 30 30 30 30 31 31 33 34 35 36 37 37 38 38 38 39 39 39 38 34 28 22 18 22 28 32 33 34 36 38 39 39 38 37 36 35 35 35 33 30 29 27 26 25 23 21 18 16 14
29 30 31 31 32 32 32 32 33 33 34 35 36 36 36 35 34 32 32 32 32 31 30 30 29 29 29 28 28 27 27 28 29 29 30 30 30 30 30 29 29 30 32 34 36 36 37 38 38 39 39 39 40 40 39 37 32 26 20 19 24 30 33 33 34 36 38 40 40 39 39 38 37 36 35 33 31 30 28 27 26 24 22 19 17
29 30 30 30 30 30 30 31 32 33 34 35 35 35 34 33 32 31 31 32 31 30 30 29 29 29 29 29 29 28 28 28 28 29 30 30 30 30 29 29 29 30 32 34 35 37 37 38 39 40 40 40 41 41 41 39 36 30 24 20 21 26 31 34 34 33 35 39 41 41 40 41 41 39 37 35 34 32 30 29 28 27 25 23 21
29 30 30 30 30 30 31 32 32 33 34 34 34 33 32 31 31 31 32 32 31 30 29 29 29 29 29 29 29 29 28 28 28 29 30 30 30 29 28 28 29 30 32 34 35 36 38 39 40 40 41 41 41 42 42 41 39 34 27 22 20 23 28 33 35 34 33 36 40 42 42 42 42 42 41 38 36 34 33 32 30 29 28 26 24
30 31 32 32 33 33 33 33 33 33 33 33 31 30 29 30 31 31 32 31 31 30 30 29 29 29 29 29 29 29 28 28 28 29 29 29 29 29 28 28 29 30 31 33 35 36 38 39 40 41 41 42 42 42 43 43 41 38 32 24 20 22 26 30 33 35 34 33 36 41 43 43 43 43 43 42 40 37 35 35 33 32 31 29 27
32 33 34 34 34 33 33 32 32 31 30 29 28 28 28 30 31 32 32 31 31 31 30 30 30 30 30 29 29 29 29 28 28 28 29 29 29 28 28 28 29 30 31 33 34 36 38 39 41 42 42 43 43 43 43 43 43 41 36 29 22 20 25 28 31 33 34 33 33 36 41 44 44 44 43 44 43 41 38 37 36 34 33 32 30
33 34 33 33 32 31 31 30 29 28 27 26 27 28 29 31 31 32 32 32 31 31 31 30 31 30 29 29 29 29 29 29 28 28 29 29 28 28 28 28 29 30 31 33 34 35 37 39 41 42 43 44 44 45 44 44 44 43 39 33 25 20 22 27 30 32 34 33 32 33 38 43 46 46 44 44 44 43 42 40 39 37 35 34 33
33 33 33 32 31 30 29 27 26 26 26 27 28 29 30 31 31 32 32 32 31 31 31 31 31 30 29 28 28 28 29 29 28 28 29 29 29 28 28 28 29 30 31 33 33 35 37 39 41 42 44 45 46 46 46 45 45 44 41 37 30 22 19 24 29 32 34 34 33 32 34 39 44 47 47 45 44 44 43 42 41 40 38 37 35
32 33 33 32 31 29 27 25 25 26 27 28 29 29 30 31 31 31 31 31 31 31 31 31 30 29 28 28 28 28 29 28 28 28 28 29 28 28 28 29 29 30 31 32 33 35 36 39 40 42 44 45 46 47 47 46 46 45 43 39 33 26 20 20 25 30 33 35 34 32 32 35 40 45 47 47 46 45 44 43 43 43 42 40 38
32 33 33 32 30 28 26 25 25 26 27 27 28 29 30 30 30 31 31 31 31 31 31 30 29 28 28 28 28 28 28 28 28 28 28 28 28 28 29 29 30 31 32 32 33 34 36 38 40 42 43 45 46 47 47 47 46 46 44 41 36 29 22 19 22 27 31 34 36 34 31 32 36 41 45 48 48 47 45 44 44 44 44 43 41
33 33 33 31 29 27 26 25 26 26 27 28 28 29 29 30 30 30 30 30 30 30 30 29 28 28 28 29 29 28 28 28 28 28 28 28 28 28 29 29 30 31 32 33 33 34 36 38 40 42 44 45 46 47 47 47 46 46 44 42 38 32 24 19 20 25 29 32 35 36 33 31 32 36 41 46 48 49 47 46 46 45 45 45 44
32 32 31 30 28 27 27 27 27 27 27 28 28 29 29 29 29 29 30 30 30 29 29 28 28 28 29 29 28 28 28 28 28 28 28 28 28 28 29 30 31 32 33 34 34 35 36 38 40 42 44 46 47 47 48 47 47 46 44 42 39 34 27 21 19 22 27 30 33 35 35 33 31 32 36 42 46 49 49 49 48 47 46 45 45
31 31 30 29 29 28 29 29 28 28 28 28 29 29 29 29 29 29 29 29 29 29 28 28 28 28 28 28 27 27 28 28 28 28 28 28 28 29 29 30 31 33 33 34 34 35 37 39 41 43 44 46 47 48 48 48 47 46 45 43 40 36 30 24 19 20 25 29 31 34 36 35 32 31 32 37 42 46 49 50 50 49 47 47 46
30 30 29 29 30 30 30 30 29 29 28 29 29 30 29 29 29 28 28 28 28 28 28 28 28 27 27 27 27 27 28 28 28 28 28 28 28 29 30 31 32 33 34 34 35 36 37 39 41 43 45 46 47 48 49 49 48 47 45 43 40 37 32 26 21 18 22 27 31 32 34 36 35 33 32 33 37 42 46 50 51 51 50 48 48
30 30 30 30 30 31 31 31 30 29 29 29 30 30 29 29 28 27 27 27 27 27 27 27 27 26 26 26 27 28 29 29 29 28 28 28 28 29 31 32 33 34 35 35 36 37 38 40 41 43 45 47 48 49 49 49 49 48 46 43 40 37 33 28 23 19 20 24 29 32 34 36 37 37 35 33 33 37 42 47 50 52 52 51 50
31 31 30 30 30 31 32 32 31 30 29 29 30 30 29 28 27 27 27 26 26 26 26 26 26 26 26 27 28 29 29 30 29 28 28 28 29 30 31 32 34 35 36 36 37 38 39 41 42 44 46 47 48 49 49 49 49 48 46 44 41 37 34 29 25 21 19 21 26 31 34 35 37 38 38 36 34 34 37 42 47 50 52 52 52
31 31 31 31 31 31 32 32 31 30 29 29 30 30 29 28 27 27 26 26 25 25 25 26 27 27 28 28 29 30 30 30 29 28 28 29 29 30 32 33 34 36 37 37 38 39 40 42 43 45 47 48 49 50 50 50 49 48 46 44 41 38 34 30 26 23 20 20 23 29 33 35 36 38 40 40 38 35 35 38 42 46 50 52 53
Wind_Direction
2 359 358 358 359 359 359 358 357 357 357 356 355 354 354 354 354 355 356 356 358 357 356 356 356 357 0 2 3 8 14 17 19 21 23 25 25 25 24 24 26 29 30 29 31 43 54 63 100 133 143 154 167 172 173 175 181 188 191 192 192 193 194 194 195 193 197 214 223 218 221 224 217 211 212 219 228 235 246 263 286 300 310 320 330
2 360 359 359 359 360 360 358 358 358 357 356 355 355 355 355 355 356 357 358 359 359 357 357 358 360 3 5 7 13 20 23 25 26 27 28 28 28 28 27 27 29 31 31 33 45 50 54 105 129 147 160 165 171 172 168 170 179 181 177 177 185 191 191 190 191 201 213 207 199 208 210 206 207 201 202 217 227 236 268 296 312 322 330 338
2 1 0 360 360 0 0 359 358 358 357 356 356 356 356 356 357 358 359 360 1 0 359 359 360 2 6 8 9 14 21 25 28 29 29 31 31 30 29 27 27 29 31 32 33 42 45 54 115 125 142 165 166 166 156 134 139 164 168 165 169 181 189 187 185 190 197 197 187 186 194 198 201 201 195 201 212 216 231 288 316 326 330 337 342
2 1 1 360 0 1 1 360 359 358 357 357 357 357 358 358 358 359 0 1 2 2 1 1 1 3 7 10 11 15 20 24 27 28 30 32 31 27 27 29 31 32 33 35 35 41 48 61 105 112 128 162 170 166 138 110 127 154 157 159 168 178 183 181 182 182 179 181 178 177 185 193 196 192 194 205 207 208 252 304 330 335 339 345 344
2 1 0 360 1 1 1 360 359 358 357 358 358 359 359 359 360 1 1 2 3 3 2 2 3 4 8 12 12 14 19 22 22 23 25 28 28 25 26 29 33 34 35 37 38 41 49 60 84 98 112 138 165 162 124 105 136 153 154 159 167 173 175 176 172 164 166 176 173 173 184 189 187 187 194 202 198 204 281 319 340 346 347 347 343
1 0 360 360 0 1 1 360 358 357 358 358 359 360 360 0 1 1 1 2 3 4 4 4 4 5 8 13 13 13 16 20 21 20 21 23 23 24 25 26 29 32 34 36 37 41 48 57 79 96 96 95 103 123 113 109 136 147 149 152 158 163 166 162 153 151 164 175 170 172 183 184 184 187 190 191 190 186 341 341 348 354 350 345 343
360 359 359 359 0 1 0 359 358 358 358 359 360 0 1 1 2 2 2 3 4 4 5 5 5 6 8 13 15 14 13 16 19 19 18 18 19 22 27 29 29 30 33 36 38 46 53 58 78 98 90 87 99 113 113 119 136 143 145 148 152 156 153 147 143 148 162 171 168 173 180 181 181 183 186 191 185 148 51 354 355 357 350 345 344
359 358 357 358 359 360 359 358 357 357 358 359 0 1 1 2 2 2 2 3 4 4 5 6 6 7 9 12 16 16 14 12 13 15 15 14 14 19 27 33 34 32 32 37 45 59 67 64 80 106 102 92 101 116 125 130 140 147 150 151 153 150 143 141 145 150 159 169 171 173 179 180 178 179 187 184 158 118 47 6 4 358 349 344 345
357 357 356 357 358 358 358 357 357 357 357 358 0 1 1 2 3 3 3 4 4 4 5 6 7 7 9 12 15 17 17 14 10 9 13 15 15 17 23 32 38 38 37 44 58 70 75 72 87 118 120 104 103 118 132 135 137 142 148 152 154 150 142 144 150 152 161 172 174 175 177 178 177 179 180 165 142 143 20 18 9 355 348 345 347
356 355 355 355 356 356 356 356 356 355 356 358 359 360 1 2 3 3 3 4 3 4 5 7 7 7 8 10 13 16 18 18 15 10 9 13 16 17 19 25 36 45 48 58 73 78 76 74 86 123 133 120 106 111 125 132 132 135 145 154 156 153 148 150 155 161 170 176 175 173 175 177 179 176 167 159 167 179 25 19 5 352 350 349 349
354 354 354 354 354 354 354 354 354 354 355 356 358 359 0 2 3 3 3 3 3 4 5 6 7 7 7 9 11 14 16 18 19 16 11 8 11 16 18 19 27 43 55 68 83 83 77 73 80 119 144 137 119 115 121 128 131 135 147 158 164 166 164 161 162 171 176 177 174 173 174 177 178 172 165 171 183 135 32 16 1 354 355 353 352
352 352 352 352 352 352 353 353 352 353 353 355 356 358 360 2 3 2 3 3 3 4 5 6 6 7 7 8 10 12 14 16 18 20 18 13 8 10 17 18 20 32 47 64 86 86 74 66 69 105 153 158 144 136 132 128 132 141 150 159 170 174 168 162 164 172 178 177 175 175 177 178 176 169 168 178 178 101 39 16 0 356 358 356 354
351 350 350 350 350 350 351 351 351 352 352 353 355 357 359 1 2 2 2 2 3 4 5 5 6 6 7 7 8 10 12 14 16 18 20 19 15 10 12 18 19 24 34 46 64 83 82 67 61 90 159 183 184 166 149 137 141 153 159 165 174 174 164 161 165 172 177 179 177 176 178 179 174 170 174 178 165 87 40 17 359 358 1 359 357
349 348 348 348 348 348 348 349 349 350 351 351 353 356 358 360 0 1 2 3 3 4 4 4 5 6 6 7 8 9 10 13 14 16 18 20 20 17 13 14 18 20 25 33 41 50 64 80 80 105 164 199 195 178 171 166 167 174 182 182 184 184 174 167 169 174 179 181 179 178 179 178 174 176 181 174 151 89 44 18 359 359 4 1 358
347 347 347 347 346 346 346 347 348 348 349 350 351 354 356 358 359 1 2 3 3 4 4 4 4 5 6 6 7 8 9 11 13 15 17 18 20 20 18 15 15 17 21 26 32 39 43 42 77 125 165 196 194 186 186 186 185 194 206 207 205 201 191 180 175 178 182 184 182 179 178 177 175 183 186 169 147 91 50 24 2 2 6 3 360
346 346 346 346 345 344 344 345 346 347 348 348 350 352 354 357 358 359 1 2 3 4 4 5 4 4 5 6 7 8 9 10 11 13 15 17 19 20 20 19 17 15 16 21 25 31 38 39 39 137 173 185 189 192 196 194 193 202 212 216 220 211 199 190 183 182 185 186 184 179 178 178 179 186 188 171 153 104 55 29 6 6 9 5 1
346 346 345 345 344 343 342 343 344 345 346 347 348 350 352 354 356 358 360 1 2 2 3 5 6 5 4 4 5 7 8 9 10 11 13 15 17 19 21 21 20 18 13 16 21 22 24 30 31 220 202 194 192 195 198 198 198 200 204 213 223 219 206 199 193 189 188 187 185 180 178 181 184 188 188 175 158 92 46 24 5 8 13 9 4
345 345 345 344 343 342 341 341 343 344 344 345 346 348 349 352 354 356 358 359 359 359 1 3 5 6 5 4 5 6 8 8 8 10 11 14 16 18 19 20 21 21 16 11 13 17 17 16 14 207 207 208 204 202 203 206 207 205 205 213 221 222 217 211 201 194 190 188 186 182 180 186 190 188 186 179 167 96 14 11 7 13 16 12 7
345 344 343 343 342 341 339 340 341 342 343 344 345 346 347 349 351 353 356 357 357 357 357 360 2 4 5 5 6 7 7 7 7 8 9 12 14 16 18 20 21 21 19 14 5 2 8 9 3 304 210 208 205 203 206 210 213 212 211 217 223 224 223 218 208 198 192 189 188 184 185 192 192 185 186 187 179 190 334 356 7 15 17 12 9
344 343 342 341 341 339 338 338 338 340 341 342 343 344 345 347 349 351 354 354 355 355 355 357 359 1 3 4 6 8 8 7 7 7 8 10 12 15 17 19 21 21 20 18 12 358 347 353 355 336 247 218 210 207 206 209 213 215 216 220 225 226 222 216 207 198 192 190 190 188 191 195 192 186 191 194 188 198 281 347 2 12 16 13 10
342 341 340 339 339 338 337 336 337 338 339 340 342 343 344 346 347 350 352 353 353 353 354 355 356 358 0 2 4 6 7 7 7 7 8 8 10 13 15 18 20 21 21 19 16 8 350 329 329 327 297 240 222 218 216 215 216 217 216 218 222 221 214 205 201 197 193 192 193 195 197 197 194 194 197 196 196 209 239 316 354 9 15 13 9
339 339 338 338 337 337 336 336 336 336 337 339 341 343 343 344 346 348 350 352 352 352 353 354 355 356 358 360 1 3 5 7 7 7 7 8 8 11 13 16 18 19 20 21 19 14 4 338 313 312 308 282 245 228 224 223 221 218 216 216 218 216 210 200 197 196 194 195 198 201 200 199 199 202 202 199 204 216 236 269 334 9 15 12 7
337 336 336 336 336 336 336 335 334 335 336 338 340 342 343 343 345 347 349 350 351 352 352 353 353 354 355 358 359 1 3 5 6 7 7 7 7 9 11 14 16 18 19 20 20 18 12 358 328 302 299 295 277 251 235 229 225 219 216 216 216 215 211 203 199 197 196 199 203 205 203 201 204 208 207 204 208 218 235 257 301 5 13 10 7
335 334 334 335 334 334 335 334 333 334 335 337 338 340 341 343 344 346 348 349 350 351 351 351 352 352 353 355 358 359 0 2 4 6 6 5 6 8 9 12 14 16 18 19 19 19 17 10 353 319 291 285 278 263 246 233 226 220 217 215 216 216 212 205 202 201 200 203 207 208 207 206 208 212 213 209 211 219 234 252 284 349 7 7 7
333 333 333 333 333 333 333 333 332 333 334 336 337 338 340 342 343 344 346 348 349 350 350 349 349 350 351 353 355 357 358 360 2 4 5 4 5 6 8 10 12 14 16 17 18 18 18 15 8 348 310 282 272 265 253 239 229 223 218 215 215 216 213 207 204 203 203 206 209 209 209 211 213 217 218 214 212 219 228 243 266 312 356 3 3
331 331 331 331 332 332 332 332 332 332 333 335 336 337 338 340 342 343 344 346 347 347 347 347 347 348 349 351 353 354 356 358 359 1 3 3 4 5 6 8 9 11 13 15 17 17 17 16 14 5 342 299 273 264 256 245 235 228 223 217 214 215 215 211 208 206 206 209 210 209 210 212 213 219 222 218 213 218 225 235 250 272 334 354 356
329 329 329 329 330 330 330 330 330 331 332 333 334 335 337 338 340 341 343 344 344 344 345 345 345 346 347 348 351 353 354 354 356 358 360 2 3 4 6 6 7 8 9 11 14 16 16 16 14 11 1 334 289 266 256 249 240 233 228 221 216 216 216 214 212 210 211 211 211 211 213 212 211 217 224 222 217 218 222 229 239 250 286 327 342
327 328 328 328 328 329 328 328 329 330 331 332 333 334 336 337 339 340 340 341 341 341 342 343 343 344 345 346 349 352 352 350 351 354 357 0 2 3 4 6 6 6 7 8 10 13 15 15 14 12 8 357 326 281 259 251 244 237 231 226 220 218 217 216 214 213 214 215 215 214 215 214 211 214 220 223 220 220 221 225 232 237 248 286 318
325 326 326 326 326 326 326 327 327 328 329 330 332 333 335 336 337 338 338 337 337 338 339 340 341 342 343 344 346 348 348 347 348 352 355 358 359 1 3 4 4 5 5 6 8 10 12 13 13 12 9 4 352 319 273 254 247 241 235 230 225 221 220 219 217 215 215 217 218 219 219 217 214 213 216 219 220 220 221 224 229 234 238 257 289
323 323 324 324 324 324 325 325 326 327 328 329 330 332 333 334 335 336 335 334 334 335 336 338 339 339 339 340 342 344 345 346 348 351 353 355 356 358 1 2 2 3 5 5 6 7 8 10 11 11 10 7 1 347 310 267 250 244 240 235 230 226 223 221 220 218 217 218 220 221 222 222 219 216 216 218 218 218 220 222 226 232 236 242 260
321 321 322 322 322 322 323 324 325 325 326 328 329 330 332 333 333 334 333 332 332 333 335 336 336 336 337 338 339 341 343 345 347 349 351 352 352 354 357 359 360 1 3 4 5 5 6 6 8 9 9 7 4 357 340 301 262 247 242 239 235 231 227 224 222 220 220 220 221 222 223 224 223 220 219 220 219 218 219 220 221 227 232 236 244
319 320 320 320 320 320 321 322 323 325 325 326 327 329 330 331 331 331 330 330 331 333 334 335 335 335 336 337 338 340 341 342 344 347 349 350 350 350 352 355 357 359 1 2 3 4 4 5 6 7 7 7 5 1 352 332 291 257 245 241 238 235 231 228 225 223 222 222 223 222 222 224 225 222 220 221 220 220 220 219 217 220 227 231 235
317 317 318 318 318 318 319 320 322 323 324 325 326 327 328 328 328 328 328 329 331 332 333 334 335 335 335 336 337 338 339 340 341 344 346 347 347 347 348 350 353 357 359 0 1 2 2 3 4 5 6 6 5 2 357 347 322 280 253 243 240 238 235 231 228 226 224 223 223 223 223 224 225 224 221 220 221 221 221 220 217 216 221 227 232
316 317 317 318 318 318 319 320 321 322 323 324 325 326 326 326 325 326 327 329 331 332 333 334 335 335 335 335 335 336 337 339 341 342 344 345 344 344 345 348 351 354 356 357 359 0 1 2 3 4 5 5 4 3 359 352 339 309 270 250 242 239 237 234 231 228 226 225 224 224 223 224 225 225 222 220 219 220 222 221 218 216 217 220 227
317 318 318 319 319 319 319 320 321 322 323 324 324 324 323 323 323 324 327 329 330 331 333 335 336 336 335 334 333 334 336 339 340 341 342 342 342 342 343 346 349 350 352 354 357 359 360 1 2 3 4 4 4 3 0 355 346 329 295 263 247 240 238 236 234 231 229 227 225 224 224 224 225 226 224 220 218 219 222 222 220 218 216 216 220
319 320 320 320 320 320 320 320 321 322 323 322 322 321 320 320 322 324 326 328 330 331 334 336 337 337 336 334 333 333 334 336 338 339 340 340 340 341 342 343 345 346 348 351 354 356 358 360 1 2 3 3 3 3 1 358 351 338 316 282 257 244 238 237 236 233 230 229 227 225 224 224 225 226 225 223 219 218 220 222 222 221 219 217 216
319 320 320 320 320 320 320 319 319 319 319 319 319 319 319 320 322 324 326 327 329 332 334 337 338 338 337 336 335 334 333 333 335 336 338 338 339 339 340 340 341 343 346 349 351 354 357 358 359 1 2 3 3 2 1 359 354 345 327 300 271 252 241 236 235 234 231 229 228 226 225 225 225 225 225 224 222 219 218 221 223 223 223 221 219
320 320 319 319 318 318 317 316 316 317 318 319 319 320 320 321 322 323 325 327 330 332 334 336 337 337 337 337 337 335 333 333 333 335 336 337 337 337 337 339 340 342 344 346 349 352 355 357 358 360 1 2 3 2 1 360 357 350 337 314 285 262 247 238 234 234 232 229 228 227 226 225 225 226 225 225 223 220 219 220 222 223 223 223 222
318 319 319 318 317 316 315 315 316 318 319 321 322 322 321 321 322 323 326 329 331 333 334 334 335 335 336 336 336 335 333 333 333 334 335 335 335 335 336 338 339 340 342 344 347 351 353 355 357 358 360 1 2 2 1 360 358 354 345 328 298 271 254 243 236 234 234 233 230 227 226 226 226 226 226 225 224 222 220 221 222 222 223 223 223
316 318 319 319 318 317 317 317 318 320 322 324 324 323 321 320 322 324 327 330 331 332 332 332 332 332 333 334 335 334 333 332 332 333 334 334 334 334 336 337 339 340 341 343 346 349 352 354 355 357 359 1 2 2 2 0 358 356 350 338 315 281 259 247 238 233 233 235 233 230 227 226 226 226 226 226 225 224 222 221 222 223 222 222 222
315 318 320 321 321 320 319 320 321 323 325 325 323 321 320 321 323 325 328 330 330 330 329 329 329 330 331 332 333 333 332 331 331 331 332 333 333 334 335 337 338 339 340 341 344 348 350 352 354 356 357 359 1 2 2 1 359 357 352 344 330 300 267 250 241 234 230 231 234 233 229 226 225 225 226 226 226 225 224 223 223 223 222 222 222
315 318 321 321 321 319 319 320 322 323 323 322 320 320 320 321 323 326 327 328 328 328 327 327 328 329 329 330 331 331 330 330 329 329 330 332 333 333 335 337 337 338 339 340 343 346 349 351 353 355 356 358 359 0 1 1 0 358 354 348 338 318 284 256 244 237 231 229 231 234 232 228 225 224 225 226 226 226 225 224 224 224 223 222 223
315 318 320 320 319 318 317 318 320 320 320 319 319 319 320 321 323 324 325 325 325 325 325 326 327 328 328 328 329 329 329 328 327 327 329 331 332 333 334 336 336 336 338 340 342 345 347 349 352 353 355 357 359 359 359 360 360 358 355 351 343 329 303 269 249 240 234 230 230 231 232 230 227 225 224 225 226 226 225 225 225 225 224 223 223
314 317 318 318 316 315 315 315 317 318 317 317 317 318 319 320 321 322 322 323 323 323 324 325 326 326 326 327 327 328 328 326 326 326 328 330 331 332 333 334 334 335 337 339 342 344 346 348 350 352 354 356 357 358 358 359 359 358 356 352 346 337 318 287 258 243 236 232 231 230 230 231 231 228 224 223 224 225 224 225 225 225 224 223 223
313 315 315 314 312 311 312 313 315 315 315 315 316 317 318 319 320 320 320 320 321 321 323 324 325 325 325 325 326 326 326 325 325 326 328 329 330 331 332 332 333 334 336 339 341 343 345 347 348 351 353 354 356 356 357 357 357 357 355 352 348 341 328 303 271 251 240 234 232 231 230 229 231 231 228 225 224 224 224 224 225 225 225 224 224
311 312 311 309 308 308 309 311 312 313 313 315 316 317 317 318 318 318 317 318 319 321 322 323 324 324 324 324 324 324 324 324 325 326 328 329 330 330 331 331 332 334 336 338 340 342 344 346 347 349 351 353 354 355 355 356 356 355 354 352 349 343 334 316 286 260 245 237 234 233 231 228 228 231 231 228 225 224 223 224 224 225 225 224 223
308 308 306 305 304 304 306 308 309 310 312 314 315 316 317 317 316 315 316 317 319 320 321 322 323 323 323 323 323 323 323 324 325 326 327 328 329 329 329 330 332 334 335 337 339 341 343 345 346 348 350 351 352 352 353 354 354 354 353 351 348 344 337 324 301 271 251 241 236 234 233 229 226 227 230 231 229 226 224 223 224 225 225 225 224
304 303 302 301 301 302 303 305 307 308 310 312 314 316 317 316 314 314 315 317 319 320 321 322 323 323 323 322 322 322 323 324 324 326 327 328 328 328 328 330 331 333 334 336 338 340 342 344 345 346 348 349 350 350 351 352 352 352 351 350 347 343 338 328 312 286 260 246 238 235 234 231 227 224 226 230 231 229 226 224 224 225 225 225 225
300 299 299 298 298 299 301 303 304 305 308 311 313 314 315 314 313 314 316 317 319 321 322 323 323 323 323 322 322 322 322 323 324 325 326 326 327 327 328 329 331 333 334 335 337 339 341 343 344 345 346 347 348 348 349 350 350 350 349 348 345 341 337 329 317 298 273 253 242 237 235 234 229 225 223 225 229 231 229 226 225 225 224 224 225
295 295 296 296 296 297 299 300 301 303 306 309 311 312 313 312 312 314 316 317 319 321 323 323 324 323 323 321 321 321 321 322 323 323 324 325 326 327 327 329 331 333 334 335 336 338 340 341 342 343 344 345 346 347 347 347 347 347 346 345 343 339 335 329 319 305 285 264 248 239 236 235 232 228 224 223 225 229 230 229 227 225 224 224 224
290 292 293 293 293 294 296 297 298 301 304 308 309 310 310 310 310 312 314 315 317 320 322 323 323 322 321 320 319 319 320 321 321 322 323 324 325 326 327 329 331 332 333 334 336 337 339 340 341 341 342 343 344 344 345 345 345 345 343 342 339 336 332 327 319 307 292 275 258 244 238 236 235 231 227 224 223 224 227 230 230 228 225 224 224
Height
5807 5805 5802 5799 5796 5793 5790 5787 5783 5780 5776 5773 5769 5765 5761 5756 5751 5746 5740 5734 5728 5721 5714 5706 5698 5689 5679 5668 5660 5652 5645 5638 5633 5628 5624 5620 5617 5614 5611 5608 5606 5603 5601 5600 5598 5597 5596 5596 5596 5597 5599 5600 5603 5606 5611 5616 5620 5622 5626 5629 5633 5637 5640 5641 5644 5647 5649 5651 5653 5655 5656 5656 5657 5659 5660 5661 5662 5662 5663 5663 5663 5663 5662 5660 5658
5807 5804 5802 5799 5796 5792 5789 5786 5783 5779 5776 5772 5769 5764 5760 5755 5750 5745 5740 5734 5727 5721 5713 5706 5698 5689 5680 5670 5662 5655 5648 5642 5637 5632 5628 5624 5621 5618 5615 5613 5610 5608 5606 5604 5602 5601 5600 5599 5599 5600 5602 5604 5606 5609 5613 5617 5619 5622 5624 5628 5632 5635 5638 5640 5644 5647 5649 5650 5653 5654 5654 5655 5656 5658 5660 5661 5661 5662 5663 5663 5663 5662 5660 5659 5657
5807 5804 5801 5798 5795 5792 5789 5786 5782 5779 5775 5772 5768 5764 5760 5755 5750 5744 5739 5733 5727 5721 5714 5706 5698 5690 5681 5673 5665 5658 5652 5646 5641 5636 5632 5628 5625 5622 5619 5616 5613 5611 5609 5607 5605 5604 5603 5602 5602 5603 5605 5607 5609 5612 5615 5617 5619 5622 5624 5627 5631 5634 5637 5641 5644 5646 5648 5650 5652 5653 5654 5655 5657 5658 5660 5660 5661 5662 5662 5662 5662 5661 5660 5658 5656
5806 5804 5801 5798 5795 5792 5788 5785 5782 5779 5775 5772 5768 5764 5759 5754 5749 5744 5738 5733 5727 5721 5714 5707 5700 5692 5684 5676 5668 5662 5655 5650 5644 5640 5635 5631 5628 5625 5622 5619 5616 5614 5612 5610 5609 5607 5606 5605 5605 5606 5608 5609 5611 5614 5616 5618 5620 5623 5626 5629 5632 5635 5638 5641 5643 5646 5648 5650 5651 5653 5654 5655 5657 5658 5659 5660 5660 5661 5662 5662 5662 5661 5659 5657 5655
5806 5803 5801 5798 5794 5791 5788 5785 5782 5779 5775 5771 5767 5763 5759 5754 5749 5743 5738 5733 5728 5722 5715 5708 5701 5694 5687 5679 5671 5665 5659 5653 5648 5643 5638 5634 5631 5628 5624 5621 5618 5616 5615 5613 5612 5611 5610 5609 5609 5610 5611 5613 5615 5616 5618 5620 5622 5625 5628 5631 5634 5637 5640 5642 5644 5646 5648 5650 5652 5653 5655 5656 5657 5658 5659 5659 5660 5661 5661 5661 5661 5660 5658 5656 5655
5806 5803 5800 5797 5794 5791 5788 5785 5782 5779 5775 5771 5767 5763 5758 5754 5749 5743 5739 5733 5728 5723 5717 5710 5703 5696 5689 5681 5674 5667 5662 5657 5651 5646 5642 5638 5635 5631 5628 5624 5621 5619 5617 5616 5615 5614 5614 5613 5613 5614 5615 5617 5618 5620 5621 5623 5625 5628 5631 5634 5636 5639 5641 5643 5645 5647 5649 5650 5652 5654 5655 5656 5657 5658 5659 5659 5660 5661 5661 5661 5660 5659 5657 5655 5654
5805 5802 5800 5797 5794 5791 5788 5785 5782 5779 5775 5771 5767 5762 5758 5753 5749 5744 5739 5733 5728 5723 5718 5712 5705 5698 5691 5683 5676 5670 5664 5659 5654 5650 5646 5642 5638 5634 5631 5628 5625 5622 5619 5618 5617 5617 5617 5617 5618 5619 5620 5621 5622 5624 5625 5627 5629 5631 5634 5636 5638 5641 5643 5644 5646 5648 5650 5651 5652 5654 5655 5656 5658 5658 5659 5660 5661 5662 5662 5661 5660 5658 5657 5655 5654
5805 5802 5799 5797 5794 5791 5788 5785 5782 5778 5775 5771 5766 5762 5758 5753 5749 5744 5739 5734 5729 5724 5719 5713 5707 5701 5694 5687 5679 5673 5667 5662 5658 5654 5650 5646 5642 5638 5635 5631 5628 5625 5622 5620 5620 5619 5620 5621 5622 5623 5624 5625 5626 5627 5628 5630 5633 5635 5637 5638 5640 5642 5644 5645 5647 5649 5650 5651 5652 5654 5655 5657 5658 5659 5660 5661 5662 5662 5662 5661 5660 5658 5657 5656 5654
5804 5802 5799 5796 5793 5791 5788 5785 5781 5778 5774 5770 5766 5762 5758 5753 5748 5744 5739 5734 5729 5725 5719 5714 5708 5703 5697 5690 5683 5677 5671 5666 5662 5658 5654 5649 5645 5642 5638 5635 5631 5628 5626 5624 5623 5623 5624 5624 5625 5627 5627 5629 5630 5630 5631 5633 5636 5637 5639 5640 5642 5643 5645 5646 5648 5649 5650 5651 5653 5654 5656 5657 5658 5659 5660 5661 5662 5662 5662 5661 5660 5658 5657 5655 5653
5804 5801 5798 5796 5793 5790 5787 5784 5781 5778 5774 5770 5766 5762 5758 5753 5748 5744 5739 5735 5730 5725 5720 5715 5709 5704 5699 5693 5687 5681 5675 5669 5664 5660 5656 5652 5649 5645 5641 5638 5635 5632 5630 5629 5628 5628 5628 5628 5629 5630 5631 5632 5633 5634 5634 5636 5638 5639 5640 5641 5643 5645 5647 5648 5649 5650 5650 5651 5653 5655 5657 5658 5659 5660 5661 5662 5662 5662 5662 5661 5660 5659 5657 5655 5653
5803 5800 5798 5795 5793 5790 5787 5784 5781 5778 5774 5770 5766 5762 5758 5753 5748 5744 5740 5736 5731 5726 5721 5716 5711 5706 5701 5695 5690 5685 5679 5673 5667 5662 5658 5654 5651 5648 5645 5641 5639 5636 5635 5633 5632 5632 5632 5632 5633 5634 5635 5636 5636 5637 5638 5639 5640 5641 5642 5643 5645 5647 5648 5649 5650 5651 5651 5652 5654 5656 5657 5659 5660 5661 5662 5662 5662 5662 5661 5661 5660 5659 5657 5655 5652
5803 5800 5797 5795 5792 5790 5787 5783 5780 5777 5774 5770 5766 5762 5757 5753 5748 5744 5740 5736 5732 5727 5722 5717 5712 5708 5702 5697 5692 5687 5682 5676 5671 5665 5660 5656 5653 5651 5648 5645 5642 5640 5638 5637 5636 5636 5635 5635 5636 5637 5638 5639 5639 5639 5640 5641 5642 5643 5644 5645 5647 5648 5649 5650 5651 5652 5653 5654 5655 5657 5658 5659 5660 5661 5662 5662 5662 5662 5661 5661 5660 5659 5657 5655 5653
5802 5800 5797 5795 5792 5789 5786 5783 5780 5777 5773 5770 5766 5762 5757 5753 5749 5745 5741 5737 5732 5728 5723 5719 5714 5709 5704 5699 5694 5689 5684 5680 5674 5669 5664 5658 5655 5652 5650 5647 5645 5642 5641 5640 5640 5638 5638 5638 5638 5638 5639 5640 5641 5642 5642 5642 5644 5645 5645 5647 5648 5649 5649 5650 5651 5653 5654 5655 5656 5658 5659 5660 5661 5662 5662 5662 5662 5661 5661 5661 5660 5659 5657 5655 5653
5802 5799 5797 5794 5791 5788 5786 5782 5779 5776 5773 5769 5766 5762 5757 5753 5749 5745 5741 5737 5733 5728 5724 5720 5715 5711 5706 5701 5696 5691 5686 5682 5677 5673 5667 5662 5657 5654 5651 5649 5647 5645 5643 5642 5642 5641 5640 5640 5639 5640 5640 5641 5642 5643 5643 5644 5645 5646 5646 5646 5647 5649 5650 5651 5652 5653 5654 5655 5657 5658 5659 5661 5662 5662 5662 5662 5662 5661 5661 5661 5660 5659 5657 5655 5653
5801 5799 5796 5793 5791 5788 5785 5782 5779 5776 5772 5769 5765 5761 5758 5754 5750 5746 5742 5738 5734 5729 5725 5721 5716 5712 5708 5703 5698 5693 5688 5684 5680 5675 5671 5666 5661 5656 5653 5651 5649 5647 5645 5644 5644 5643 5642 5641 5640 5640 5641 5641 5642 5644 5645 5645 5646 5647 5647 5647 5648 5649 5650 5651 5652 5653 5654 5655 5656 5658 5660 5661 5662 5662 5662 5662 5661 5661 5661 5661 5660 5659 5657 5655 5653
5800 5798 5795 5792 5790 5787 5784 5781 5778 5775 5772 5768 5765 5761 5757 5754 5750 5746 5742 5738 5734 5730 5726 5722 5718 5713 5709 5705 5700 5696 5691 5686 5682 5678 5673 5669 5664 5660 5656 5652 5650 5649 5647 5646 5645 5644 5643 5642 5642 5641 5641 5642 5643 5644 5645 5646 5647 5648 5648 5648 5649 5650 5650 5651 5652 5652 5653 5654 5656 5658 5660 5661 5662 5662 5662 5662 5662 5661 5662 5661 5660 5659 5658 5656 5653
5799 5797 5794 5791 5789 5786 5783 5780 5777 5774 5771 5768 5764 5761 5757 5754 5750 5747 5743 5739 5735 5731 5728 5724 5719 5715 5710 5706 5702 5698 5693 5689 5684 5681 5676 5672 5667 5663 5659 5655 5652 5650 5649 5648 5646 5646 5645 5644 5643 5643 5643 5642 5643 5644 5645 5646 5647 5647 5648 5649 5649 5649 5650 5651 5651 5652 5653 5654 5656 5658 5660 5661 5661 5661 5662 5662 5662 5662 5662 5661 5661 5660 5658 5656 5654
5798 5796 5793 5790 5788 5785 5782 5779 5776 5773 5770 5767 5764 5761 5757 5754 5751 5747 5743 5740 5736 5732 5728 5724 5721 5717 5713 5709 5704 5700 5695 5691 5687 5683 5679 5675 5670 5666 5662 5658 5654 5651 5650 5649 5648 5647 5646 5645 5645 5644 5644 5643 5643 5644 5644 5645 5646 5647 5647 5648 5649 5650 5650 5651 5652 5652 5653 5655 5656 5658 5660 5660 5661 5661 5662 5662 5662 5662 5662 5661 5661 5659 5658 5657 5654
5797 5795 5792 5789 5787 5784 5781 5778 5776 5773 5770 5767 5763 5760 5757 5754 5751 5747 5744 5740 5736 5732 5729 5725 5721 5718 5714 5710 5706 5701 5697 5693 5689 5685 5681 5677 5674 5669 5665 5661 5657 5653 5651 5650 5649 5648 5647 5646 5646 5645 5644 5644 5643 5644 5644 5645 5646 5646 5647 5648 5649 5649 5650 5651 5652 5653 5654 5655 5657 5658 5659 5659 5660 5662 5662 5662 5662 5662 5662 5661 5661 5660 5659 5657 5656
5796 5793 5791 5788 5786 5783 5780 5777 5774 5772 5769 5766 5763 5759 5756 5753 5750 5747 5743 5740 5736 5732 5728 5725 5721 5718 5714 5711 5707 5703 5699 5695 5691 5687 5683 5679 5676 5672 5668 5664 5660 5657 5653 5651 5649 5648 5648 5647 5647 5646 5645 5644 5644 5644 5644 5644 5645 5645 5646 5647 5648 5649 5649 5651 5652 5653 5654 5656 5657 5658 5659 5659 5661 5662 5662 5662 5662 5662 5662 5661 5661 5660 5659 5658 5657
5795 5792 5789 5787 5784 5782 5779 5776 5773 5770 5767 5764 5761 5758 5755 5752 5749 5746 5742 5739 5736 5732 5728 5725 5721 5718 5714 5711 5708 5705 5701 5697 5693 5689 5685 5681 5678 5674 5671 5667 5663 5660 5656 5653 5650 5648 5648 5647 5647 5646 5646 5645 5644 5643 5643 5643 5644 5644 5644 5645 5646 5647 5648 5649 5651 5653 5655 5656 5657 5658 5659 5660 5661 5661 5662 5662 5662 5662 5662 5662 5661 5661 5660 5659 5657
5793 5791 5788 5785 5782 5780 5777 5774 5771 5769 5766 5763 5760 5757 5754 5751 5748 5745 5741 5738 5735 5731 5728 5724 5721 5717 5714 5711 5708 5705 5702 5698 5694 5691 5687 5683 5679 5676 5673 5670 5666 5662 5659 5655 5652 5649 5647 5646 5646 5646 5645 5645 5644 5643 5643 5643 5643 5643 5644 5644 5644 5645 5646 5648 5650 5652 5654 5656 5656 5657 5658 5660 5661 5661 5661 5662 5661 5662 5662 5662 5662 5661 5660 5659 5658
5792 5789 5786 5784 5781 5778 5775 5772 5769 5767 5764 5761 5758 5755 5752 5749 5747 5744 5740 5737 5734 5730 5727 5724 5721 5717 5714 5711 5708 5704 5701 5698 5695 5692 5688 5685 5682 5678 5675 5671 5668 5664 5661 5658 5654 5651 5648 5646 5645 5645 5644 5644 5643 5642 5641 5641 5642 5642 5643 5643 5643 5643 5645 5647 5649 5651 5653 5654 5655 5656 5658 5660 5660 5660 5661 5661 5661 5662 5662 5662 5662 5662 5661 5660 5659
5790 5787 5784 5782 5779 5776 5773 5771 5768 5765 5762 5760 5757 5754 5751 5748 5745 5742 5739 5736 5733 5729 5726 5723 5720 5717 5714 5710 5707 5704 5701 5699 5696 5692 5689 5686 5683 5680 5676 5673 5670 5666 5663 5659 5656 5653 5650 5647 5645 5644 5644 5643 5643 5642 5641 5641 5641 5641 5642 5642 5643 5643 5645 5647 5649 5650 5652 5653 5655 5656 5658 5659 5660 5660 5660 5661 5661 5661 5661 5662 5662 5662 5661 5660 5659
5788 5785 5782 5780 5777 5774 5771 5769 5766 5763 5761 5758 5755 5752 5750 5747 5744 5741 5738 5735 5732 5729 5725 5722 5719 5716 5713 5710 5707 5704 5701 5699 5696 5693 5690 5687 5684 5681 5678 5674 5671 5667 5664 5661 5657 5654 5651 5648 5645 5644 5642 5642 5642 5641 5641 5640 5640 5640 5641 5642 5642 5643 5645 5647 5648 5649 5650 5651 5653 5655 5657 5658 5659 5659 5659 5660 5661 5661 5661 5661 5661 5662 5661 5661 5660
5786 5783 5780 5778 5775 5772 5769 5767 5764 5761 5759 5756 5754 5751 5748 5746 5743 5740 5737 5734 5731 5728 5725 5722 5719 5716 5713 5710 5707 5704 5701 5698 5696 5693 5690 5688 5685 5681 5678 5675 5671 5669 5666 5663 5659 5656 5652 5649 5646 5643 5641 5640 5640 5640 5639 5639 5639 5639 5639 5640 5641 5642 5644 5646 5647 5648 5649 5649 5651 5653 5654 5656 5658 5658 5658 5659 5660 5660 5661 5661 5661 5661 5661 5661 5660
5783 5781 5779 5776 5773 5770 5767 5764 5762 5760 5757 5755 5752 5749 5747 5745 5742 5739 5736 5733 5730 5727 5724 5721 5718 5715 5712 5709 5706 5703 5700 5698 5696 5693 5691 5688 5685 5681 5678 5674 5672 5669 5666 5663 5660 5657 5653 5650 5646 5644 5641 5639 5638 5637 5637 5637 5637 5638 5638 5639 5640 5641 5642 5644 5645 5646 5647 5648 5649 5650 5651 5653 5655 5656 5657 5658 5659 5660 5660 5660 5660 5661 5661 5661 5661
5781 5779 5776 5774 5771 5768 5765 5762 5760 5758 5755 5753 5750 5748 5745 5743 5740 5738 5735 5732 5729 5726 5723 5720 5717 5714 5711 5709 5706 5703 5701 5699 5697 5694 5691 5687 5684 5681 5678 5674 5672 5669 5666 5663 5660 5657 5654 5650 5647 5644 5641 5638 5636 5635 5635 5635 5635 5636 5636 5637 5638 5639 5640 5642 5643 5645 5646 5647 5647 5648 5649 5651 5653 5654 5655 5657 5658 5659 5659 5660 5660 5660 5661 5661 5661
5779 5776 5774 5771 5769 5766 5764 5761 5758 5756 5753 5751 5749 5746 5744 5741 5739 5736 5733 5730 5728 5725 5722 5719 5716 5714 5711 5708 5706 5703 5701 5699 5697 5694 5691 5687 5685 5682 5678 5675 5672 5669 5666 5663 5660 5657 5654 5651 5648 5644 5641 5638 5636 5633 5633 5633 5633 5633 5634 5635 5636 5637 5638 5639 5641 5642 5644 5645 5646 5647 5647 5649 5650 5652 5653 5654 5656 5657 5658 5659 5659 5660 5660 5661 5661
5776 5774 5771 5769 5766 5763 5761 5759 5756 5753 5751 5749 5747 5744 5742 5739 5737 5734 5731 5728 5726 5723 5720 5718 5715 5713 5710 5708 5705 5703 5700 5698 5696 5693 5690 5687 5685 5682 5679 5676 5673 5670 5667 5664 5660 5657 5654 5651 5648 5645 5641 5638 5635 5632 5630 5630 5630 5630 5631 5632 5633 5634 5635 5637 5638 5640 5641 5642 5643 5645 5646 5647 5648 5650 5651 5652 5654 5655 5657 5658 5659 5659 5659 5660 5660
5773 5771 5768 5766 5763 5760 5758 5756 5753 5751 5749 5746 5744 5742 5740 5737 5735 5732 5729 5726 5724 5721 5718 5716 5713 5711 5708 5706 5704 5701 5699 5696 5694 5692 5689 5687 5684 5682 5679 5676 5673 5670 5667 5664 5660 5657 5653 5651 5648 5644 5641 5638 5634 5631 5629 5627 5626 5627 5627 5628 5629 5631 5632 5634 5635 5637 5638 5639 5641 5643 5644 5645 5646 5648 5649 5651 5652 5653 5654 5656 5658 5658 5659 5659 5660
5770 5767 5765 5763 5760 5758 5755 5753 5750 5748 5746 5744 5742 5740 5737 5735 5732 5730 5727 5724 5721 5719 5716 5714 5711 5708 5706 5704 5701 5699 5697 5695 5693 5691 5688 5686 5683 5681 5678 5676 5673 5670 5667 5663 5660 5657 5654 5650 5647 5644 5640 5637 5634 5630 5627 5625 5623 5623 5623 5624 5625 5627 5628 5630 5632 5633 5635 5636 5638 5640 5641 5642 5643 5645 5647 5649 5650 5651 5652 5653 5655 5657 5658 5658 5659
5766 5764 5762 5759 5757 5755 5753 5750 5748 5745 5743 5741 5739 5737 5735 5732 5729 5727 5724 5721 5719 5717 5714 5712 5709 5706 5704 5702 5699 5697 5695 5693 5691 5689 5687 5684 5682 5680 5677 5675 5672 5669 5665 5662 5660 5657 5654 5650 5646 5643 5640 5636 5633 5629 5626 5623 5621 5619 5619 5620 5621 5622 5624 5626 5628 5629 5631 5633 5634 5636 5638 5639 5640 5642 5644 5646 5648 5650 5650 5651 5653 5655 5656 5657 5658
5762 5760 5758 5756 5754 5752 5750 5747 5745 5743 5740 5738 5736 5734 5732 5729 5727 5724 5721 5719 5717 5714 5712 5710 5707 5705 5702 5700 5697 5695 5693 5692 5690 5688 5685 5683 5681 5679 5676 5673 5670 5668 5665 5662 5660 5656 5653 5649 5646 5642 5639 5635 5632 5628 5624 5621 5618 5616 5615 5615 5616 5617 5619 5621 5623 5625 5627 5629 5630 5633 5634 5636 5637 5638 5641 5643 5645 5647 5648 5649 5651 5652 5654 5655 5656
5759 5757 5755 5752 5750 5748 5746 5744 5742 5740 5737 5735 5733 5731 5728 5726 5724 5721 5719 5717 5714 5712 5710 5708 5705 5703 5700 5698 5696 5693 5692 5690 5688 5686 5684 5681 5679 5677 5674 5672 5669 5667 5665 5662 5659 5655 5652 5649 5645 5641 5638 5634 5631 5627 5623 5619 5616 5614 5612 5611 5611 5612 5614 5616 5618 5620 5622 5624 5626 5628 5630 5632 5633 5635 5637 5640 5642 5644 5646 5647 5649 5650 5651 5653 5654
5755 5753 5751 5749 5747 5745 5742 5740 5738 5736 5734 5732 5729 5727 5724 5723 5721 5719 5717 5714 5712 5710 5707 5705 5703 5701 5698 5696 5694 5691 5690 5688 5686 5684 5682 5680 5677 5675 5673 5670 5668 5666 5664 5661 5657 5654 5651 5648 5644 5640 5637 5633 5629 5625 5621 5617 5614 5611 5609 5607 5607 5607 5609 5611 5613 5615 5617 5619 5621 5623 5626 5628 5629 5631 5633 5636 5639 5641 5643 5645 5646 5648 5649 5650 5651
5752 5750 5748 5746 5743 5741 5739 5737 5735 5733 5730 5728 5726 5724 5721 5720 5718 5716 5714 5712 5710 5707 5705 5703 5701 5699 5696 5694 5692 5690 5688 5686 5684 5682 5680 5677 5675 5673 5671 5669 5667 5664 5662 5659 5656 5653 5650 5646 5643 5639 5635 5632 5628 5624 5620 5616 5612 5608 5605 5604 5603 5603 5604 5606 5607 5609 5611 5613 5616 5618 5621 5623 5624 5627 5629 5632 5635 5637 5640 5641 5643 5645 5646 5648 5649
5749 5747 5745 5742 5740 5738 5736 5734 5731 5729 5727 5725 5723 5721 5719 5717 5716 5714 5712 5710 5707 5705 5703 5701 5699 5697 5694 5692 5690 5688 5686 5684 5682 5680 5678 5675 5673 5671 5669 5667 5665 5663 5660 5657 5654 5651 5648 5645 5641 5638 5634 5630 5626 5622 5618 5614 5610 5606 5602 5600 5599 5598 5599 5600 5602 5604 5606 5608 5610 5613 5616 5618 5620 5622 5624 5627 5630 5633 5636 5637 5639 5641 5643 5645 5646
5746 5744 5742 5739 5737 5735 5733 5730 5728 5726 5724 5722 5720 5719 5717 5715 5713 5711 5709 5707 5705 5703 5700 5699 5697 5695 5693 5690 5688 5686 5684 5682 5679 5678 5676 5674 5672 5670 5667 5665 5663 5661 5658 5655 5652 5649 5646 5643 5639 5636 5632 5628 5624 5620 5616 5611 5607 5603 5600 5597 5595 5594 5594 5595 5597 5599 5601 5602 5604 5607 5610 5612 5615 5617 5619 5622 5625 5629 5631 5633 5635 5637 5640 5642 5644
5742 5741 5739 5736 5734 5731 5729 5727 5725 5723 5721 5720 5718 5716 5714 5712 5710 5709 5707 5705 5702 5700 5698 5696 5694 5693 5690 5688 5686 5684 5681 5679 5678 5676 5674 5672 5670 5667 5665 5663 5661 5658 5656 5653 5650 5647 5644 5641 5637 5634 5630 5626 5622 5618 5614 5610 5605 5601 5597 5594 5592 5590 5590 5590 5592 5594 5596 5597 5599 5601 5604 5607 5609 5612 5614 5617 5620 5624 5627 5629 5631 5633 5636 5638 5640
5739 5737 5735 5733 5731 5728 5726 5724 5722 5721 5719 5717 5715 5713 5712 5710 5708 5706 5704 5702 5700 5698 5696 5694 5692 5690 5688 5686 5684 5682 5679 5677 5676 5674 5672 5670 5667 5665 5663 5661 5659 5656 5654 5651 5648 5645 5642 5639 5635 5632 5628 5624 5620 5616 5612 5608 5603 5599 5595 5591 5588 5586 5586 5586 5587 5589 5591 5593 5594 5596 5598 5601 5603 5606 5609 5612 5615 5618 5622 5624 5626 5629 5632 5634 5636
5736 5734 5732 5730 5728 5726 5724 5722 5720 5718 5716 5715 5713 5711 5709 5707 5705 5703 5701 5699 5697 5695 5693 5691 5689 5687 5686 5684 5682 5679 5677 5675 5673 5671 5669 5667 5665 5663 5661 5659 5656 5654 5651 5649 5646 5643 5640 5636 5633 5629 5625 5621 5617 5613 5609 5605 5601 5597 5592 5588 5585 5583 5582 5582 5583 5584 5586 5588 5590 5591 5593 5595 5597 5600 5604 5607 5610 5613 5616 5619 5621 5624 5627 5630 5632
5733 5731 5729 5727 5725 5723 5721 5719 5718 5716 5714 5712 5710 5708 5706 5704 5702 5700 5698 5697 5695 5692 5691 5689 5687 5685 5683 5681 5679 5677 5675 5673 5671 5669 5666 5664 5662 5660 5658 5656 5654 5652 5649 5646 5643 5640 5637 5634 5631 5627 5624 5620 5615 5611 5607 5603 5599 5595 5591 5587 5583 5580 5579 5578 5578 5580 5581 5583 5585 5587 5588 5590 5592 5595 5598 5601 5604 5607 5611 5614 5616 5619 5622 5625 5627
5729 5728 5726 5724 5722 5720 5718 5717 5715 5713 5712 5710 5708 5706 5704 5702 5699 5697 5695 5694 5692 5690 5688 5686 5684 5682 5680 5678 5676 5674 5672 5670 5668 5666 5664 5662 5660 5657 5655 5653 5651 5649 5647 5644 5641 5638 5635 5632 5629 5625 5622 5618 5614 5610 5605 5601 5597 5593 5589 5585 5581 5578 5576 5575 5574 5575 5577 5578 5580 5582 5584 5585 5587 5589 5592 5595 5598 5601 5605 5608 5611 5613 5617 5620 5622
5725 5724 5722 5720 5719 5717 5715 5714 5712 5711 5709 5707 5705 5703 5701 5699 5697 5694 5692 5690 5689 5687 5685 5683 5681 5679 5677 5675 5673 5671 5669 5667 5665 5663 5661 5659 5657 5655 5653 5650 5648 5646 5643 5641 5638 5635 5632 5629 5626 5622 5619 5615 5611 5608 5603 5599 5595 5591 5587 5583 5579 5576 5573 5572 5571 5571 5572 5574 5576 5578 5579 5581 5582 5584 5586 5589 5592 5595 5599 5602 5605 5608 5611 5614 5617
5721 5720 5718 5717 5715 5714 5712 5711 5709 5707 5705 5704 5702 5700 5698 5695 5693 5691 5689 5687 5685 5683 5681 5680 5678 5676 5674 5672 5670 5668 5666 5664 5663 5661 5659 5657 5654 5652 5650 5647 5645 5642 5640 5638 5635 5632 5629 5626 5622 5619 5616 5612 5608 5605 5601 5597 5593 5589 5585 5581 5577 5574 5571 5569 5568 5567 5568 5569 5571 5572 5575 5577 5578 5579 5581 5583 5585 5589 5593 5596 5599 5602 5605 5609 5612
5718 5716 5714 5713 5712 5711 5709 5707 5705 5704 5702 5700 5699 5697 5695 5692 5690 5688 5686 5684 5682 5680 5678 5676 5675 5673 5671 5669 5667 5665 5664 5662 5660 5658 5656 5654 5652 5650 5647 5645 5642 5639 5637 5634 5632 5629 5626 5623 5619 5616 5613 5609 5605 5602 5598 5594 5590 5587 5583 5579 5575 5572 5569 5566 5565 5564 5564 5565 5566 5568 5569 5572 5574 5575 5576 5578 5580 5583 5586 5590 5593 5596 5599 5603 5606
5714 5712 5711 5709 5708 5707 5705 5703 5702 5700 5699 5697 5695 5693 5691 5689 5687 5685 5683 5681 5679 5677 5675 5673 5671 5669 5668 5666 5664 5662 5661 5659 5657 5655 5653 5651 5649 5647 5644 5642 5639 5636 5634 5631 5628 5626 5623 5620 5616 5613 5610 5606 5602 5598 5595 5591 5587 5584 5580 5577 5573 5569 5566 5564 5562 5561 5560 5561 5562 5563 5564 5566 5568 5570 5572 5573 5574 5577 5580 5583 5586 5590 5593 5597 5600
5709 5708 5707 5706 5704 5703 5701 5700 5698 5697 5695 5693 5691 5689 5688 5686 5684 5682 5680 5678 5676 5674 5672 5670 5668 5666 5665 5663 5661 5659 5658 5656 5654 5652 5650 5648 5646 5644 5641 5639 5636 5633 5630 5628 5625 5622 5619 5616 5613 5610 5606 5603 5599 5595 5591 5588 5584 5580 5577 5574 5570 5567 5564 5561 5559 5558 5557 5557 5557 5558 5559 5561 5563 5565 5567 5568 5570 5571 5574 5577 5580 5583 5587 5591 5594
5705 5704 5703 5702 5700 5699 5697 5696 5694 5693 5692 5690 5688 5686 5684 5683 5681 5679 5677 5675 5672 5670 5669 5667 5665 5663 5662 5660 5658 5656 5654 5652 5650 5648 5647 5645 5643 5640 5638 5636 5633 5630 5627 5624 5621 5619 5616 5613 5610 5606 5603 5600 5596 5592 5588 5585 5581 5577 5573 5570 5567 5564 5561 5558 5556 5554 5553 5553 5553 5553 5554 5556 5557 5559 5562 5563 5565 5567 5568 5571 5573 5576 5580 5584 5588
5701 5699 5698 5697 5696 5695 5693 5692 5690 5689 5688 5686 5684 5682 5681 5679 5677 5676 5674 5672 5669 5667 5665 5663 5662 5660 5658 5656 5655 5653 5651 5649 5647 5645 5643 5641 5639 5637 5635 5632 5629 5626 5624 5621 5618 5615 5612 5609 5606 5603 5599 5596 5592 5589 5585 5581 5578 5574 5570 5566 5563 5560 5558 5555 5552 5551 5549 5549 5548 5548 5549 5550 5552 5553 5556 5558 5560 5562 5563 5565 5567 5570 5573 5577 5581